Location: Antioch Church
(34.9543°N, 88.5145°W)
Time: 11:19:51
(UTC+00:00)

Cosmos 44 - Pass Details

Date: 11 December 2019
Orbit: 595 x 767 km, 65.1° (Epoch: 25 January)

Event Time Altitude Azimuth Distance (km) Brightness Sun altitude
Rises 11:41:17 0° 222° (SW) 3,058 6.4 -14.1°
Reaches altitude 10° 11:43:44 10° 228° (SW) 2,115 5.5 -13.6°
Maximum altitude 11:48:21 46° 302° (WNW) 881 3.4 -12.7°
Drops below altitude 10° 11:52:45 10° 16° (NNE) 2,023 5.7 -11.9°
Sets 11:55:04 0° 23° (NNE) 2,910 6.5 -11.4°
